STARLINK-3155 (49739 NORAD) Tracking and Keplerian Element Data
This shows tracking and keplerian element data for the satellite.
Feedback or suggestion? Click here.
Element | Value |
Catalog | 49739 |
Name | STARLINK-3155 |
Epoch Orbit | 130 |
Epoch Day | 140.58334491 |
Epoch Year | 2022 |
RAAN | 275.0612 |
Inclination | 53.2138 |
Eccentricity | 0.0002241 |
Argument of Perigee | 29.0265 |
Mean Anonmoly | 212.4493 |
Mean Motion | 15.08863333 |
Decay Rate | -0.000327 |
L1 | 1 49739U 21115R 22140.58334491 -.00032700 00000+0 -20444-2 0 9997 |
L2 | 2 49739 53.2138 275.0612 0002241 29.0265 212.4493 15.08863333 1301 |
Live tracking and technical data element details for STARLINK-3155 (NORAD 49739). STARLINK-3155 can be tracked NOW for your location showing map with azimuth and elevation plus other details from your city location.
Track the satellite on the map from your city or location and see movement details for azimuth, elevation, latitude, longitude, range, height, and movement on the map or in text.
IsCatalogInMostPopularTable: catalog: 49739, numindb: 20
Update: records affected: 1
GetName: 49739 STARLINK-3155
Hit Count: updated at: Sun, 22 May 2022 03:46:44 GMT